AFL771 UUEE-UKKK

Flight info

Callsign AFL771
Flight time N/A
Altitude 38000
Route SOTOG3H SOTOG DCT TUVOG
Aircraft B738/M-SDE2E3FGHIRWXY/LB1

Departure

Time 2026-05-04 18:32
Airport Sheremetyevo International Airport (UUEE)

Arrival

Time N/A
Airport Ihor Sikorsky Kyiv International Airport (Zhuliany) (UKKK)
Time Latitude Longitude Altitude Speed Heading
2026-05-04 18:04 55.97905 37.41245 645 ft 0 kts 255°
2026-05-04 18:25 55.97917 37.41324 639 ft 12 kts 246°
2026-05-04 18:25 55.97938 37.41360 639 ft 0 kts 158°
2026-05-04 18:27 55.97922 37.41369 643 ft 7 kts 163°
2026-05-04 18:27 55.97851 37.41404 638 ft 14 kts 166°
2026-05-04 18:28 55.97739 37.41456 638 ft 13 kts 165°
2026-05-04 18:28 55.97678 37.41525 638 ft 10 kts 113°
2026-05-04 18:28 55.97628 37.41612 640 ft 10 kts 149°
2026-05-04 18:28 55.97616 37.41729 639 ft 10 kts 75°
2026-05-04 18:29 55.97635 37.41849 646 ft 10 kts 74°
2026-05-04 18:29 55.97656 37.41992 640 ft 14 kts 75°
2026-05-04 18:29 55.97684 37.42186 643 ft 18 kts 75°
2026-05-04 18:29 55.97721 37.42431 647 ft 22 kts 75°
2026-05-04 18:30 55.97814 37.43047 640 ft 29 kts 76°
2026-05-04 18:30 55.97868 37.43409 642 ft 31 kts 75°
2026-05-04 18:30 55.97919 37.43758 638 ft 28 kts 75°
2026-05-04 18:31 55.97947 37.43976 638 ft 12 kts 98°
2026-05-04 18:31 55.97882 37.44054 638 ft 12 kts 165°
2026-05-04 18:31 55.97801 37.44080 639 ft 12 kts 194°
2026-05-04 18:31 55.97782 37.44027 639 ft 0 kts 257°
2026-05-04 18:32 55.97750 37.43808 640 ft 56 kts 255°
2026-05-04 18:32 55.97576 37.42642 639 ft 134 kts 255°
2026-05-04 18:32 55.97303 37.40781 1049 ft 163 kts 254°
2026-05-04 18:32 55.97040 37.38782 1927 ft 166 kts 253°
2026-05-04 18:33 55.96787 37.36765 2859 ft 165 kts 255°
2026-05-04 18:33 55.96477 37.34686 3363 ft 191 kts 252°
2026-05-04 18:33 55.96069 37.32285 3676 ft 209 kts 252°
2026-05-04 18:33 55.95637 37.29721 4051 ft 222 kts 253°
2026-05-04 18:34 55.95185 37.26991 4426 ft 236 kts 253°
2026-05-04 18:34 55.94710 37.24077 4803 ft 252 kts 254°
2026-05-04 18:34 55.94220 37.21038 5609 ft 256 kts 254°
2026-05-04 18:34 55.93732 37.17985 6615 ft 256 kts 255°
2026-05-04 18:35 55.93244 37.14909 7556 ft 259 kts 255°
2026-05-04 18:35 55.92749 37.11794 8496 ft 263 kts 255°
2026-05-04 18:35 55.92247 37.08642 9482 ft 266 kts 255°
2026-05-04 18:35 55.91756 37.05439 10412 ft 270 kts 259°
2026-05-04 18:36 55.91818 37.02088 11299 ft 275 kts 285°
2026-05-04 18:36 55.92676 36.99012 12255 ft 283 kts 305°
2026-05-04 18:36 55.94142 36.96522 12703 ft 311 kts 321°
2026-05-04 18:36 55.96013 36.94220 12938 ft 340 kts 324°
2026-05-04 18:37 55.98258 36.92551 13475 ft 362 kts 347°
2026-05-04 18:37 56.00821 36.92642 14306 ft 374 kts
2026-05-04 18:37 56.03239 36.94453 15201 ft 383 kts 30°
2026-05-04 18:37 56.05475 36.97130 16074 ft 389 kts 32°
2026-05-04 18:38 56.07694 36.99845 16863 ft 395 kts 31°
2026-05-04 18:38 56.09973 37.02663 17649 ft 402 kts 36°
2026-05-04 18:38 56.11843 37.06456 18396 ft 413 kts 57°
2026-05-04 18:38 56.12932 37.11234 19146 ft 418 kts 75°
2026-05-04 18:39 56.13609 37.16327 19895 ft 422 kts 76°
2026-05-04 18:39 56.14269 37.21495 20562 ft 427 kts 79°
2026-05-04 18:39 56.14340 37.26834 21181 ft 433 kts 100°
2026-05-04 18:39 56.13412 37.31951 21884 ft 432 kts 119°
2026-05-04 18:40 56.11671 37.36312 22615 ft 430 kts 136°
2026-05-04 18:40 56.09325 37.39576 23241 ft 428 kts 154°
2026-05-04 18:40 56.07544 37.41128 23629 ft 429 kts 159°
2026-05-04 18:40 56.03908 37.44019 24325 ft 434 kts 159°
2026-05-04 18:41 56.01150 37.46255 24854 ft 437 kts 158°
2026-05-04 18:41 55.98382 37.48569 25373 ft 441 kts 156°
2026-05-04 18:41 55.95846 37.51731 25843 ft 452 kts 137°
2026-05-04 18:41 55.93968 37.56258 26372 ft 459 kts 120°
2026-05-04 18:42 55.93147 37.59748 26712 ft 463 kts 107°
2026-05-04 18:42 55.92491 37.65396 27222 ft 466 kts 101°
2026-05-04 18:42 55.91946 37.71110 27698 ft 468 kts 101°
2026-05-04 18:42 55.91064 37.76685 28122 ft 469 kts 117°
2026-05-04 18:43 55.89446 37.81744 28589 ft 469 kts 123°
2026-05-04 18:43 55.87761 37.86743 29024 ft 472 kts 122°
2026-05-04 18:43 55.86017 37.91723 29440 ft 472 kts 131°
2026-05-04 18:43 55.83675 37.95516 30404 ft 454 kts 149°
2026-05-04 18:44 55.80906 37.97956 31350 ft 437 kts 164°
2026-05-04 18:44 55.78938 37.98816 31981 ft 427 kts 174°
2026-05-04 18:44 55.75115 37.98750 33228 ft 405 kts 193°
2026-05-04 18:44 55.72464 37.97394 34173 ft 390 kts 205°
2026-05-04 18:45 55.70076 37.95271 34871 ft 380 kts 216°
2026-05-04 18:45 55.68033 37.92330 35237 ft 379 kts 226°
2026-05-04 18:45 55.66149 37.89019 35492 ft 384 kts 227°
2026-05-04 18:45 55.64179 37.85768 35762 ft 390 kts 218°
2026-05-04 18:46 55.61891 37.83249 36093 ft 394 kts 212°
2026-05-04 18:46 55.59489 37.80893 36440 ft 396 kts 211°
2026-05-04 18:46 55.57074 37.78523 36748 ft 398 kts 212°
2026-05-04 18:46 55.54657 37.76082 36973 ft 403 kts 212°
2026-05-04 18:47 55.52207 37.73561 37017 ft 412 kts 213°
2026-05-04 18:47 55.47277 37.68071 37149 ft 425 kts 217°
2026-05-04 18:47 55.44880 37.65082 37783 ft 416 kts 218°
2026-05-04 18:48 55.42537 37.62153 37832 ft 408 kts 217°
2026-05-04 18:48 55.40247 37.59337 37870 ft 395 kts 217°
2026-05-04 18:48 55.38002 37.56609 37868 ft 390 kts 217°
2026-05-04 18:49 55.33646 37.50944 37893 ft 388 kts 221°
2026-05-04 18:49 55.29526 37.44887 37890 ft 389 kts 223°
2026-05-04 18:50 55.25375 37.38769 37885 ft 390 kts 222°
2026-05-04 18:50 55.21193 37.32692 37885 ft 391 kts 222°
2026-05-04 18:51 55.16995 37.26646 37869 ft 391 kts 221°
2026-05-04 18:51 55.12788 37.20613 37881 ft 391 kts 221°
2026-05-04 18:52 55.08570 37.14583 37882 ft 391 kts 221°
2026-05-04 18:52 55.04352 37.08571 37877 ft 392 kts 221°
2026-05-04 18:53 55.00127 37.02563 37879 ft 391 kts 221°
2026-05-04 18:53 54.95931 36.96614 37873 ft 391 kts 221°
2026-05-04 18:54 54.91709 36.90644 37881 ft 390 kts 221°
2026-05-04 18:54 54.87489 36.84694 37886 ft 390 kts 221°
2026-05-04 18:55 54.83269 36.78760 37879 ft 390 kts 221°
2026-05-04 18:55 54.76943 36.69891 37873 ft 390 kts 221°
2026-05-04 18:56 54.72758 36.64018 37879 ft 389 kts 223°
2026-05-04 18:56 54.68820 36.57578 37878 ft 388 kts 227°
2026-05-04 18:57 54.65003 36.50960 37902 ft 389 kts 227°
2026-05-04 18:57 54.61161 36.44371 37907 ft 389 kts 226°
2026-05-04 18:58 54.57296 36.37832 37915 ft 389 kts 226°
2026-05-04 18:58 54.53412 36.31314 37903 ft 390 kts 226°
2026-05-04 18:59 54.49525 36.24820 37912 ft 390 kts 226°
2026-05-04 18:59 54.45649 36.18364 37912 ft 390 kts 226°
2026-05-04 19:00 54.41739 36.11868 37899 ft 390 kts 226°
2026-05-04 19:00 54.37827 36.05390 37904 ft 390 kts 225°
2026-05-04 19:01 54.33941 35.98972 37888 ft 390 kts 225°
2026-05-04 19:01 54.30027 35.92524 37890 ft 390 kts 225°
2026-05-04 19:02 54.26108 35.86087 37891 ft 390 kts 225°
2026-05-04 19:02 54.22189 35.79667 37896 ft 390 kts 225°
2026-05-04 19:03 54.18267 35.73259 37900 ft 390 kts 225°
2026-05-04 19:03 54.14341 35.66864 37895 ft 390 kts 225°
2026-05-04 19:04 54.10418 35.60491 37898 ft 389 kts 225°
2026-05-04 19:04 54.06516 35.54169 37900 ft 389 kts 225°
2026-05-04 19:05 54.02587 35.47821 37898 ft 389 kts 225°
2026-05-04 19:05 53.98655 35.41485 37903 ft 389 kts 225°
2026-05-04 19:06 53.94719 35.35160 37895 ft 389 kts 224°
2026-05-04 19:06 53.90781 35.28850 37911 ft 389 kts 224°
2026-05-04 19:07 53.86839 35.22550 37905 ft 389 kts 224°
2026-05-04 19:07 53.82892 35.16259 37910 ft 390 kts 224°
2026-05-04 19:08 53.78965 35.10018 37912 ft 390 kts 224°
2026-05-04 19:08 53.75011 35.03749 37907 ft 390 kts 224°
2026-05-04 19:09 53.71051 34.97489 37911 ft 390 kts 224°
2026-05-04 19:09 53.67084 34.91234 37913 ft 390 kts 224°
2026-05-04 19:10 53.63111 34.84988 37916 ft 390 kts 224°
2026-05-04 19:10 53.59131 34.78741 37918 ft 390 kts 224°
2026-05-04 19:11 53.55157 34.72527 37918 ft 390 kts 224°
2026-05-04 19:11 53.51196 34.66351 37923 ft 390 kts 224°
2026-05-04 19:12 53.45219 34.57062 37921 ft 390 kts 224°
2026-05-04 19:13 53.41227 34.50876 37924 ft 390 kts 224°
2026-05-04 19:13 53.37228 34.44698 37927 ft 390 kts 223°
2026-05-04 19:14 53.33262 34.38585 37928 ft 390 kts 223°
2026-05-04 19:14 53.29262 34.32438 37933 ft 390 kts 223°
2026-05-04 19:15 53.25260 34.26302 37934 ft 391 kts 223°
2026-05-04 19:15 53.21239 34.20155 37934 ft 391 kts 223°
2026-05-04 19:16 53.17214 34.14018 37937 ft 391 kts 223°
2026-05-04 19:16 53.13195 34.07906 37935 ft 392 kts 223°
2026-05-04 19:17 53.09165 34.01795 37943 ft 392 kts 223°
2026-05-04 19:17 53.05154 33.95728 37943 ft 392 kts 223°
2026-05-04 19:18 53.01111 33.89628 37941 ft 392 kts 223°
2026-05-04 19:18 52.97066 33.83541 37940 ft 392 kts 223°